Other Surface Observations
Issued by NWS

Home | Current Version | Previous Version | Text Only | Print | Product List | Glossary On
Versions: 1 2 3 4 5 6 7 8 9 10 11 12 13 14 15 16 17 18 19 20 21 22 23 24 25 26 27 28 29 30 31 32 33 34 35 36 37 38 39 40 41 42 43 44 45 46 47 48 49 50
000
SXUS52 KTAE 021705
OSOTAE
OSOTAE
North Florida/South Alabama/Southwest Georgia Weather Roundup
National Weather Service Tallahassee Florida
100 PM EDT TUE SEP 02 2014

Note: "fair" indicates few or no clouds below 12,000 feet with no
significant weather and/or obstructions to visibility.

!FLZ017-115-028-034-025-021800
...North Florida...

CITY           SKY/WX    TMP DP  RH WIND       PRES   REMARKS
TALLAHASSEE    PTSUNNY   93  69  45 VRB3      30.08F HX  98
APALACHICOLA   MOSUNNY   91  75  59 SE13      30.08F HX 101
PERRY          MOSUNNY   90  72  55 CALM      30.09F HX  96
CROSS CITY       N/A     92  74  55 VRB5      30.08F HX 101
HOMERVILLE     FAIR      91  75  59 CALM      30.09F HX 102
JACKSONVILLE   MOSUNNY   90  73  57 NW7       30.07F HX  98
$$

!FLZ112-006-005-002-011-021800
...Florida Panhandle...

CITY           SKY/WX    TMP DP  RH WIND       PRES   REMARKS
MARIANNA       PTSUNNY   89  73  59 CALM      30.08F HX  97
BONIFAY        HVY RAIN  93  71  48 VRB3      30.09F HX 100
PANAMA CITY NW FAIR      90  70  51 NW6       30.07F HX  95
TYNDALL AFB    MOSUNNY   90  76  62 VRB2      30.09F HX 101
TYND DRONE APT FAIR      89  75  62 VRB5      30.07F HX 100
DE FUNIAK SPR  FAIR      89  72  56 CALM      30.10F HX  95
EGLIN AFB      PTSUNNY   90  75  61 S9        30.09F HX  99
DESTIN         SUNNY     90  77  65 VRB6      30.09S HX 103
HURLBURT       MOSUNNY   90  71  53 SE9       30.08F HX  96
CRESTVIEW      CLOUDY    92  73  53 SE8       30.10F HX 100
PENSACOLA      MOSUNNY   88  73  61 S10       30.08F HX  95
$$

!ALZ063-066-021800
...South Alabama...

CITY           SKY/WX    TMP DP  RH WIND       PRES   REMARKS
DOTHAN         MOSUNNY   92  67  43 S7        30.13F HX  95
OZARK CAIRNS   PTSUNNY   89  70  53 SW5       30.10F HX  94
FT RUCKER HELI SUNNY     92  68  45 CALM      30.08F HX  96
RUCKER HELI 3  FAIR      92  69  45 SE3       30.12F HX  97
RUCKER HELI 2  FAIR      91  69  48 NE5       30.09F HX  96
FLORALA APT    PTSUNNY   93  70  46 CALM      30.10F HX  99
ANDALUSIA      SUNNY     96  67  38 S3        30.09F HX 100
TROY           MOSUNNY   92  69  47 SW7       30.11F HX  97
EUFALA         FAIR      91  70  49 CALM      30.09F HX  96
MOBILE         MOSUNNY   90  72  55 VRB3      30.09F HX  97
$$

!GAZ120>161-021800
...Southwest and South Central Georgia...

CITY           SKY/WX    TMP DP  RH WIND       PRES   REMARKS
THOMASVILLE    FAIR      90  73  58 CALM      30.10F HX  98
BAINBRIDGE     MOSUNNY   95  73  49 CALM      30.09F HX 105
MOODY AFB      SUNNY     88  74  63 VRB3      30.09F HX  97
VALDOSTA       MOSUNNY   90  74  59 CALM      30.09F HX  99
MOULTRIE       MOSUNNY   90  73  58 NW5       30.10F HX  98
BLAKELY        CLOUDY    95  72  46 NE7         N/A  HX 103
ALBANY         PTSUNNY   90  72  55 N3        30.10F HX  97
TIFTON         PTSUNNY   89  69  51 CALM      30.09S HX  94
FITZGERALD     FAIR      93  69  45 NE3       30.10F HX  98
CORDELE        FAIR      94  70  46 W5        30.09F HX  99
AMERICUS       PTSUNNY   90  70  51 CALM      30.10F HX  95
$$

!GMZ750-755-770-775-021800
...Coastal and Buoy Obs...

STATION/POSITION TIME  TEMP    WIND        PRES    VSBY  WAVE
                       AIR SEA DIR/SP/G                  HT/PER
                 (UTC) (F)     (DEG/KT/KT) (MB)    (MI)  (FT/S)
KEATON BEACH     1700   85     260/  5/  7 1018.9F
CEDAR KEY        1600   83     140/  4/  5 1019.8F
C TOWER          1700   83      70/  9/  9 1019.0F
APALACHICOLA BUO 1700   85 87   50/  6/  8 1019.1F         2/ 8
PANAMA CITY BUOY 1547   84 86   90/  6/  8 1019.4S         3/ 8
MOBILE BUOY      1549   84 86  120/  4/  6 1019.0F
ORANGE BCH AL BU 1700   85 86  150/  8/ 10 1018.9F         3/ 7
$$



USA.gov is the U.S. government's official web portal to all federal, state and local government web resources and services.